[[{"header":{"parameterUnit":"m.s-1","parameterCategory":1,"la1":30.2991,"la2":30.254,"lo1":-89.0895,"lo2":-89.0444,"dy":0.0017,"dx":0.0017,"nx":28,"ny":28,"refTime":"2024-04-16T03:00:00:Z","depth":0,"parameterNumber":2,"parameterNumberName":"U-component_of_WINDS"},"data":[0,0,0,0,0,0,0,0,0,0,0,0,0,0,0,0,0,0,0,0,0,0,0,0,0,0,0,0,0,0,0,0,0,0,0,0,0,0,0,0,0,0,0,0,0,0,0,0,0,0,0,0,0,0,0,0,0,0,-2.3597,-2.3598,0,-2.371,-2.3711,-2.3712,-2.3685,-2.3683,-2.368,-2.3678,-2.3797,-2.3802,-2.3807,0,0,0,0,0,0,0,0,0,0,0,0,0,-2.3362,-2.3366,-2.3597,-2.3598,-2.36,-2.371,-2.3711,-2.3713,-2.3685,-2.3682,-2.368,-2.3677,-2.3795,-2.3801,-2.3808,0,0,0,0,0,0,0,0,0,0,0,0,0,-2.3468,-2.3367,-2.3596,-2.3599,-2.36,-2.3709,-2.3711,-2.3713,-2.3686,-2.3682,-2.3679,-2.3676,-2.3793,-2.3801,-2.3809,-2.3923,0,0,-2.3832,-2.3836,0,0,0,0,0,0,0,0,-2.3462,-2.3477,-2.3597,-2.3599,-2.3601,-2.368,-2.3672,-2.3784,-2.3687,-2.3653,-2.3678,-2.3674,-2.3761,-2.3771,-2.38,-2.3928,-2.3934,-2.3833,-2.3838,-2.3841,-2.3843,0,0,0,0,0,0,0,-2.3455,-2.3472,-2.3641,-2.3599,-2.3601,-2.3596,-2.3607,-2.3693,-2.3724,-2.3656,-2.3654,-2.3668,-2.3761,-2.3792,-2.3802,-2.3935,-2.3833,-2.384,-2.3845,-2.3848,-2.4166,-2.417,0,0,0,0,0,0,-2.3445,-2.3466,-2.3638,-2.3645,-2.3522,-2.3603,-2.3616,-2.3658,-2.3723,-2.373,-2.3671,-2.3666,-2.378,-2.3793,-2.3806,-2.3946,-2.3841,-2.3848,-2.3853,-2.4163,-2.4167,-2.4171,0,0,0,0,0,0,-2.344,-2.3461,-2.3633,-2.3555,-2.3577,-2.361,-2.3658,-2.3662,-2.3693,-2.3734,-2.374,-2.3696,-2.3778,-2.3795,-2.3895,-2.395,-2.3852,-2.3859,-2.4158,-2.4164,-2.4169,-2.4226,0,0,0,0,0,0,-2.3434,-2.3459,-2.3502,-2.3556,-2.3581,-2.3718,-2.3661,-2.3666,-2.3706,-2.3701,-2.376,-2.3766,-2.3777,-2.3883,-2.3902,-2.3959,-2.3865,-2.4153,-2.4161,-2.4168,-2.4219,-2.4232,-2.4244,0,0,0,0,0,-2.3425,-2.3513,-2.3504,-2.3525,-2.3634,-2.3722,-2.3736,-2.3745,-2.371,-2.3754,-2.3782,-2.3765,-2.3941,-2.3893,-2.3915,-2.3975,-2.415,-2.4159,-2.4167,-2.4213,-2.423,-2.4244,0,0,0,0,0,0,-2.3465,-2.352,-2.3511,-2.3618,-2.3666,-2.3717,-2.3772,-2.3762,-2.3821,-2.3814,-2.3825,-2.3838,-2.394,-2.3967,-2.3913,-2.409,-2.404,-2.4054,-2.4068,-2.4084,-2.4097,-2.4088,-2.3872,0,0,0,0,0,-2.3486,-2.3551,-2.3596,-2.3687,-2.3711,-2.3738,-2.3776,-2.378,-2.3829,-2.3849,-2.3883,-2.3933,-2.4,-2.4044,-2.4107,-2.4223,-2.4236,-2.4275,-2.4287,-2.4297,-2.4309,-2.4374,-2.4392,-2.4199,-2.4199,-2.4199,0,0,-2.3531,-2.3569,-2.3609,-2.3696,-2.3733,-2.3802,-2.3755,-2.3829,-2.388,-2.3861,-2.3957,-2.3984,-2.404,-2.4149,-2.4198,-2.4175,-2.4365,-2.4308,-2.4316,-2.4322,-2.4385,-2.4403,-2.4419,-2.4205,-2.4204,-2.4203,0,0,-2.3647,-2.3682,-2.3762,-2.38,-2.3857,-2.3874,-2.3894,-2.3947,-2.3965,-2.4061,-2.4048,-2.411,-2.4224,-2.4266,-2.4302,-2.4437,-2.4424,-2.4457,-2.4523,-2.4586,-2.4601,-2.4615,-2.4664,-2.4682,-2.4468,-2.4469,-2.4469,0,-2.3695,-2.3797,-2.3805,-2.3881,-2.392,-2.3906,-2.3988,-2.4025,-2.41,-2.4129,-2.4101,-2.4245,-2.4282,-2.4401,-2.4434,-2.4463,-2.4487,-2.445,-2.4598,-2.4612,-2.4625,-2.4672,-2.4691,-2.4472,-2.4472,-2.4471,-2.4471,0,-2.3854,-2.3925,-2.3984,-2.4056,-2.4102,-2.4181,-2.4203,-2.4249,-2.425,-2.4271,-2.437,-2.4414,-2.4487,-2.4516,-2.4517,-2.4636,-2.462,-2.4595,-2.4546,-2.4647,-2.4692,-2.471,-2.4478,-2.4476,-2.4475,-2.4474,0,0,-2.3997,-2.4074,-2.4096,-2.4129,-2.4192,-2.4248,-2.4327,-2.4398,-2.4439,-2.4491,-2.4559,-2.4657,-2.4636,-2.4677,-2.4682,-2.4738,-2.4844,-2.4707,-2.4709,-2.4732,-2.498,-2.4998,-2.5019,-2.4836,-2.484,-2.4842,-2.4976,0,-2.412,-2.4258,-2.4269,-2.4395,-2.4462,-2.445,-2.452,-2.4567,-2.4589,-2.4651,-2.4676,-2.4746,-2.4711,-2.4736,-2.4791,-2.482,-2.4894,-2.481,-2.4901,-2.4904,-2.4887,-2.5042,-2.5062,-2.5185,-2.4993,-2.4996,-2.4998,0,-2.4281,-2.4338,-2.4471,-2.4526,-2.4554,-2.4616,-2.4684,-2.4742,-2.4796,-2.4809,-2.4855,-2.4854,-2.4938,-2.4885,-2.5002,-2.4944,-2.4982,-2.5003,-2.5008,-2.5017,-2.4957,-2.5056,-2.5224,-2.5243,-2.5026,-2.5023,-2.5021,0,-2.4373,-2.4484,-2.4578,-2.4607,-2.4673,-2.4718,-2.4748,-2.4798,-2.4841,-2.49,-2.4929,-2.4997,-2.5035,-2.5089,-2.5107,-2.5066,-2.5223,-2.5172,-2.5237,-2.5237,-2.527,-2.5268,-2.5448,-2.5294,-2.5294,-2.5294,-2.5293,0,-2.4509,-2.4591,-2.4621,-2.4679,-2.4771,-2.4784,-2.4875,-2.4902,-2.4948,-2.5012,-2.5007,-2.5068,-2.5087,-2.5152,-2.5167,-2.5262,-2.5279,-2.5292,-2.5296,-2.5293,-2.5292,-2.5318,-2.5311,-2.5298,-2.5297,-2.5296,-2.5296,0,-2.4628,-2.4651,-2.4753,-2.4808,-2.4823,-2.4889,-2.4937,-2.4994,-2.5016,-2.5098,-2.5118,-2.5153,-2.5229,-2.5252,-2.5344,-2.5354,-2.5465,-2.546,-2.5447,-2.5448,-2.5512,-2.5506,-2.5716,-2.5744,-2.5571,-2.5573,-2.5574,0,-2.4713,-2.4776,-2.4838,-2.488,-2.4912,-2.498,-2.5024,-2.504,-2.5086,-2.5154,-2.5203,-2.5278,-2.5339,-2.5462,-2.5496,-2.5567,-2.5564,-2.5633,-2.5575,-2.5571,-2.5566,-2.5563,-2.557,-2.5644,-2.5646,-2.5647,-2.5648,0,-2.4862,-2.4871,-2.4934,-2.5003,-2.5055,-2.5109,-2.5162,-2.5197,-2.5221,-2.5274,-2.5351,-2.5399,-2.5493,-2.5569,-2.5641,-2.5673,-2.5666,-2.5666,-2.5685,-2.5684,-2.5674,-2.5681,-2.5478,-2.5661,-2.566,-2.5659,-2.5658,-2.5658,-2.4968,-2.5024,-2.5077,-2.5148,-2.5189,-2.5239,-2.5296,-2.5325,-2.539,-2.5468,-2.5473,-2.5558,-2.5613,-2.5709,-2.5745,-2.5812,-2.5792,-2.582,-2.5827,-2.5833,-2.5839,-2.5663,-2.5825,-2.5825,-2.5825,-2.5824,-2.5824,0,-2.5118,-2.5152,-2.5217,-2.5291,-2.5348,-2.5336,-2.5394,-2.5442,-2.5516,-2.5568,-2.5628,-2.5719,-2.5792,-2.5833,-2.5907,-2.5953,-2.5952,-2.5972,-2.5969,-2.5977,-2.5852,-2.5829,-2.5972,-2.5972,-2.5972,-2.5972,-2.5972,-2.5972,-2.5203,-2.5298,-2.5313,-2.5429,-2.5463,-2.5545,-2.558,-2.5626,-2.5668,-2.5769,-2.583,-2.5856,-2.5904,-2.5981,-2.6049,-2.6059,-2.6087,-2.611,-2.6118,-2.6001,-2.5985,-2.5971,-2.5949,-2.6116,-2.6116,-2.6237,-2.6239,-2.6239]},{"header":{"parameterUnit":"m.s-1","parameterCategory":1,"la1":30.2991,"la2":30.254,"lo1":-89.0895,"lo2":-89.0444,"dy":0.0017,"dx":0.0017,"nx":28,"ny":28,"refTime":"2024-04-16T03:00:00:Z","depth":0,"parameterNumber":3,"parameterNumberName":"V-component_of_WINDS"},"data":[0,0,0,0,0,0,0,0,0,0,0,0,0,0,0,0,0,0,0,0,0,0,0,0,0,0,0,0,0,0,0,0,0,0,0,0,0,0,0,0,0,0,0,0,0,0,0,0,0,0,0,0,0,0,0,0,0,0,2.3484,2.3483,0,2.336,2.3358,2.3357,2.3302,2.3302,2.3302,2.3302,2.3169,2.3165,2.3161,0,0,0,0,0,0,0,0,0,0,0,0,0,2.3671,2.3668,2.3484,2.3483,2.3481,2.336,2.3358,2.3356,2.3302,2.3302,2.3302,2.3302,2.317,2.3165,2.3161,0,0,0,0,0,0,0,0,0,0,0,0,0,2.3572,2.3667,2.3485,2.3439,2.3434,2.336,2.3358,2.3356,2.3302,2.3302,2.3302,2.3302,2.3171,2.3166,2.316,2.312,0,0,2.3143,2.3141,0,0,0,0,0,0,0,0,2.3578,2.3565,2.3448,2.3442,2.3436,2.3347,2.3375,2.3277,2.3301,2.3352,2.3302,2.3302,2.3227,2.3217,2.3193,2.3114,2.3108,2.3143,2.3139,2.3137,2.3135,0,0,0,0,0,0,0,2.3585,2.357,2.3435,2.3446,2.3439,2.3424,2.341,2.3356,2.3289,2.3347,2.3343,2.3329,2.3224,2.3198,2.3189,2.3106,2.3143,2.3138,2.3134,2.3132,2.299,2.2989,0,0,0,0,0,0,2.36,2.3577,2.3439,2.3431,2.351,2.342,2.3405,2.3375,2.329,2.3277,2.3329,2.3327,2.3208,2.3196,2.3184,2.3132,2.3137,2.3132,2.3129,2.299,2.299,2.2989,0,0,0,0,0,0,2.3604,2.3588,2.3444,2.3503,2.3483,2.3417,2.3384,2.3372,2.3347,2.3276,2.3263,2.3315,2.3208,2.3192,2.3137,2.3127,2.3129,2.3124,2.2991,2.299,2.2989,2.3028,0,0,0,0,0,0,2.361,2.359,2.3575,2.3503,2.348,2.34,2.3383,2.337,2.3338,2.3334,2.326,2.3248,2.3207,2.3146,2.3132,2.3119,2.312,2.2991,2.299,2.299,2.3028,2.3029,2.303,0,0,0,0,0,2.3616,2.3589,2.3574,2.3558,2.346,2.34,2.3386,2.3341,2.3337,2.3321,2.3276,2.325,2.3131,2.3141,2.3124,2.311,2.2992,2.2991,2.299,2.3027,2.3029,2.303,0,0,0,0,0,0,2.3658,2.3579,2.3561,2.351,2.3463,2.339,2.3368,2.3344,2.3295,2.3293,2.3238,2.3222,2.3172,2.3135,2.3148,2.3068,2.3059,2.3055,2.3093,2.3094,2.3096,2.3105,2.3115,0,0,0,0,0,2.3662,2.3622,2.3553,2.3514,2.3492,2.3435,2.3406,2.3376,2.3324,2.3302,2.3253,2.3202,2.3153,2.3122,2.3073,2.3023,2.3006,2.3005,2.3006,2.3008,2.3004,2.2976,2.2975,2.2986,2.2986,2.2986,0,0,2.3669,2.362,2.3597,2.3522,2.3481,2.3439,2.3418,2.3373,2.3341,2.3295,2.3241,2.3203,2.3142,2.309,2.3065,2.3058,2.2998,2.3007,2.3008,2.3004,2.2975,2.2974,2.2974,2.2985,2.2985,2.2986,0,0,2.3659,2.3618,2.3582,2.3543,2.3483,2.3446,2.3437,2.3369,2.3343,2.3289,2.3254,2.3214,2.3131,2.309,2.3058,2.3036,2.301,2.3021,2.3028,2.3001,2.3,2.2999,2.2992,2.299,2.3018,2.3018,2.3018,0,2.3673,2.361,2.3566,2.3525,2.3492,2.3452,2.3415,2.3378,2.3304,2.3283,2.3277,2.3174,2.313,2.3068,2.3063,2.3038,2.3027,2.3028,2.3004,2.3003,2.3001,2.2993,2.2991,2.302,2.302,2.302,2.3019,0,2.3632,2.3588,2.3566,2.3499,2.3465,2.3425,2.3374,2.3345,2.3318,2.3281,2.3227,2.3173,2.3114,2.3097,2.3069,2.3032,2.303,2.3015,2.3005,2.3003,2.2994,2.2991,2.3022,2.3022,2.3021,2.3021,0,0,2.3642,2.3554,2.3546,2.3516,2.3448,2.3413,2.3372,2.3316,2.3292,2.3243,2.3207,2.314,2.3127,2.3091,2.3058,2.3035,2.3022,2.3023,2.3021,2.3025,2.2978,2.2989,2.2987,2.3006,2.3005,2.3004,2.2984,0,2.3623,2.355,2.351,2.3453,2.3413,2.3375,2.334,2.3294,2.3259,2.3219,2.3179,2.3133,2.3119,2.3097,2.3073,2.3029,2.3012,2.303,2.2971,2.2969,2.2987,2.2982,2.2993,2.2976,2.298,2.2979,2.2979,0,2.359,2.3545,2.3485,2.3424,2.3405,2.3374,2.3321,2.3283,2.323,2.3207,2.3169,2.3137,2.3093,2.3088,2.3025,2.3039,2.3012,2.2988,2.2986,2.2978,2.2973,2.2974,2.2969,2.2966,2.2973,2.2974,2.2974,0,2.3604,2.3528,2.3482,2.3458,2.3385,2.3365,2.3333,2.3281,2.3251,2.3204,2.3183,2.3131,2.3102,2.3062,2.3018,2.3019,2.296,2.2951,2.2939,2.294,2.2927,2.2928,2.2918,2.2911,2.2911,2.2912,2.2912,0,2.3586,2.355,2.3488,2.346,2.342,2.3375,2.3335,2.3301,2.3256,2.322,2.3183,2.315,2.3094,2.3054,2.3019,2.2973,2.296,2.294,2.2931,2.2942,2.2945,2.2923,2.2923,2.2911,2.2911,2.2911,2.2911,0,2.3594,2.3551,2.3499,2.3436,2.3419,2.3392,2.3338,2.3309,2.3274,2.3229,2.3215,2.3159,2.311,2.3063,2.2997,2.2974,2.2928,2.2916,2.2946,2.2941,2.2931,2.2933,2.2906,2.29,2.2899,2.2899,2.2899,0,2.3585,2.3557,2.3492,2.3467,2.3437,2.3396,2.3366,2.3321,2.329,2.3231,2.3209,2.3158,2.3115,2.3039,2.2991,2.2941,2.2927,2.2922,2.2919,2.2933,2.2927,2.2929,2.2927,2.2923,2.2923,2.2923,2.2923,0,2.3573,2.3554,2.3513,2.3465,2.3431,2.339,2.3348,2.3328,2.3275,2.3243,2.3194,2.3161,2.3095,2.3045,2.299,2.2957,2.2931,2.2925,2.2919,2.293,2.2949,2.2939,2.2949,2.2925,2.2925,2.2925,2.2925,2.2924,2.3572,2.3546,2.3498,2.3453,2.3418,2.338,2.3351,2.3313,2.3272,2.3216,2.3192,2.3143,2.3093,2.3016,2.2984,2.2944,2.2938,2.2929,2.2927,2.2926,2.2929,2.2957,2.2934,2.2934,2.2934,2.2934,2.2934,0,2.3559,2.3526,2.3486,2.343,2.3396,2.3377,2.3331,2.3302,2.326,2.3216,2.3176,2.312,2.3073,2.3023,2.2972,2.295,2.2937,2.2938,2.2939,2.2932,2.2937,2.2947,2.295,2.295,2.295,2.295,2.295,2.295,2.3548,2.3504,2.348,2.3418,2.3385,2.3338,2.3313,2.3279,2.3244,2.3184,2.3145,2.3114,2.3068,2.3014,2.297,2.2956,2.2939,2.2944,2.2927,2.2932,2.2931,2.293,2.2939,2.294,2.294,2.2925,2.2925,2.2925]}]]